Бакота

Ukraine / Khmelnitsky District     48˚36′30″N   26˚57′23″E
temp.,
°C
wind,
m/s
gust,
m/s
humid.,
%
clouds,
%
prec.,
mm/h
press.,
hPa
HPBL,
m
2 december, wed
wed223:00−4˚nne24840 0.0 1028126
02:00−4˚nne24899 0.0 1028119
05:00−4˚ne239519 0.0 102789
08:00−3˚ne119652 0.1 102744
11:00−1˚e128587 0.1 1027287
14:00se238089 0.1 1025505
17:00−1˚se3485100 0.0 1025335
20:00−1˚se248696 0.0 1025163
3 december, thu
thu323:00−2˚se379613 0.0 1025219
02:00−1˚se488744 0.0 1024459
05:00ese4792100 0.0 1023329
08:00se51098100 0.0 1023444
11:00+2˚se61188100 0.0 1022715
14:00+3˚se71184100 0.0 1020811
17:00+1˚se5129599 0.0 1019444
20:00+2˚se61195100 0.0 1019559
4 december, fri
fri423:00+3˚se51294100 0.0 1018634
02:00+2˚se7119295 0.0 1017593
05:00+3˚se81488100 0.0 1016751
08:00+5˚sse81685100 0.0 1016805
11:00+6˚sse10167497 0.0 1016941
14:00+10˚sse10166880 0.0 10141099
17:00+8˚se9168583 0.0 1015963
20:00+8˚se10168691 0.0 1017876
5 december, sat
sat523:00+7˚se101688100 0.0 1017824
02:00+7˚se91587100 0.0 1018855
05:00+7˚se91588100 0.0 1018763
08:00+7˚se9168894 0.0 1019702
11:00+7˚se9158498 0.0 1020766
14:00+7˚se10158099 0.0 1020733
17:00+5˚se8158487 0.0 1021624
20:00+4˚se8158782 0.0 1022554
6 december, sun
sun623:00+3˚se8148667 0.0 1023599
02:00+3˚se8138583 0.0 1023634
05:00+3˚se81385100 0.0 1023737
08:00+2˚se81384100 0.0 1023755
11:00+2˚se91380100 0.0 1023776
14:00+3˚se81278100 0.0 1022763
17:00+2˚ese9157697 0.0 1022583
20:00+2˚se9157799 0.0 1022658